| time (UTC) | temp F | wind direction | speed knots | gust knots | rain 1hr in | rain 24hr in | rain mn in | humidity % | barometer mb |
| 20260504042007 | 54 | 217 | 0.0 | 1.7 | 0.00 | 0.00 | 0.00 | 61 | 1017.9 |
| 20260504041520 | 54 | 216 | 0.0 | 1.7 | 0.00 | 0.00 | 0.00 | 62 | 1018.0 |
| 20260504041007 | 54 | 232 | 0.0 | 1.7 | 0.00 | 0.00 | 0.00 | 63 | 1017.9 |
| 20260504040507 | 54 | 232 | 0.0 | 1.7 | 0.00 | 0.00 | 0.00 | 64 | 1017.9 |
| 20260504040018 | 54 | 232 | 0.0 | 1.7 | 0.00 | 0.00 | 0.00 | 65 | 1018.0 |
| 20260504035505 | 55 | 232 | 0.0 | 1.7 | 0.00 | 0.00 | 0.00 | 61 | 1018.0 |
| 20260504035004 | 55 | 232 | 0.0 | 1.7 | 0.00 | 0.00 | 0.00 | 64 | 1018.0 |
| 20260504034510 | 55 | 232 | 0.0 | 1.7 | 0.00 | 0.00 | 0.00 | 63 | 1018.0 |
| 20260504034007 | 56 | 232 | 0.0 | 1.7 | 0.00 | 0.00 | 0.00 | 60 | 1017.9 |
| 20260504033505 | 56 | 232 | 0.0 | 1.7 | 0.00 | 0.00 | 0.00 | 59 | 1017.9 |
| 20260504033013 | 57 | 231 | 0.9 | 2.6 | 0.00 | 0.00 | 0.00 | 56 | 1017.8 |
| 20260504032503 | 57 | 203 | 0.9 | 2.6 | 0.00 | 0.00 | 0.00 | 56 | 1017.7 |
| 20260504032009 | 57 | 223 | 0.9 | 2.6 | 0.00 | 0.00 | 0.00 | 56 | 1017.6 |
| 20260504031523 | 57 | 219 | 0.9 | 3.5 | 0.00 | 0.00 | 0.00 | 55 | 1017.6 |
| 20260504031008 | 58 | 210 | 1.7 | 3.5 | 0.00 | 0.00 | 0.00 | 55 | 1017.5 |
| 20260504030507 | 58 | 230 | 1.7 | 3.5 | 0.00 | 0.00 | 0.00 | 54 | 1017.5 |
| 20260504030021 | 58 | 237 | 1.7 | 2.6 | 0.00 | 0.00 | 0.00 | 54 | 1017.6 |
| 20260504025507 | 58 | 243 | 0.9 | 2.6 | 0.00 | 0.00 | 0.00 | 54 | 1017.5 |
| 20260504025007 | 58 | 233 | 1.7 | 2.6 | 0.00 | 0.00 | 0.00 | 54 | 1017.4 |
| 20260504024524 | 58 | 226 | 0.9 | 1.7 | 0.00 | 0.00 | 0.00 | 54 | 1017.5 |
| 20260504024003 | 58 | 210 | 0.9 | 1.7 | 0.00 | 0.00 | 0.00 | 55 | 1017.5 |
| 20260504023504 | 57 | 210 | 0.9 | 1.7 | 0.00 | 0.00 | 0.00 | 55 | 1017.4 |
| 20260504023013 | 56 | 217 | 0.9 | 1.7 | 0.00 | 0.00 | 0.00 | 56 | 1017.4 |
| 20260504022506 | 56 | 212 | 0.9 | 1.7 | 0.00 | 0.00 | 0.00 | 60 | 1017.4 |
| 20260504022007 | 57 | 204 | 0.9 | 1.7 | 0.00 | 0.00 | 0.00 | 60 | 1017.4 |
| 20260504021518 | 56 | 233 | 0.9 | 1.7 | 0.00 | 0.00 | 0.00 | 56 | 1017.4 |
| 20260504021006 | 56 | 214 | 0.0 | 1.7 | 0.00 | 0.00 | 0.00 | 61 | 1017.4 |
| 20260504020508 | 57 | 231 | 0.9 | 1.7 | 0.00 | 0.00 | 0.00 | 56 | 1017.4 |
| 20260504020022 | 56 | 214 | 0.9 | 2.6 | 0.00 | 0.00 | 0.00 | 57 | 1017.4 |
| 20260504015506 | 55 | 200 | 1.7 | 2.6 | 0.00 | 0.00 | 0.00 | 58 | 1017.4 |
| 20260504015007 | 54 | 229 | 0.0 | 1.7 | 0.00 | 0.00 | 0.00 | 66 | 1017.3 |
| 20260504014522 | 54 | 196 | 0.9 | 1.7 | 0.00 | 0.00 | 0.00 | 69 | 1017.3 |
| 20260504014007 | 54 | 237 | 0.0 | 1.7 | 0.00 | 0.00 | 0.00 | 68 | 1017.3 |
| 20260504013506 | 54 | 270 | 0.0 | 0.0 | 0.00 | 0.00 | 0.00 | 68 | 1017.3 |
| 20260504013017 | 54 | 270 | 0.0 | 0.0 | 0.00 | 0.00 | 0.00 | 67 | 1017.2 |
| 20260504012504 | 55 | 270 | 0.0 | 0.0 | 0.00 | 0.00 | 0.00 | 67 | 1017.2 |
| 20260504012004 | 55 | 270 | 0.0 | 0.0 | 0.00 | 0.00 | 0.00 | 66 | 1017.1 |
| 20260504011512 | 55 | 270 | 0.0 | 0.0 | 0.00 | 0.00 | 0.00 | 66 | 1017.1 |
| 20260504011004 | 55 | 270 | 0.0 | 0.0 | 0.00 | 0.00 | 0.00 | 65 | 1017.0 |
| 20260504010506 | 56 | 270 | 0.0 | 0.0 | 0.00 | 0.00 | 0.00 | 64 | 1017.0 |
| 20260504010018 | 57 | 270 | 0.0 | 0.0 | 0.00 | 0.00 | 0.00 | 62 | 1016.9 |
| 20260504005508 | 57 | 270 | 0.0 | 0.0 | 0.00 | 0.00 | 0.00 | 61 | 1017.0 |
| 20260504005008 | 57 | 270 | 0.0 | 0.0 | 0.00 | 0.00 | 0.00 | 60 | 1017.0 |
| 20260504004526 | 58 | 270 | 0.0 | 0.0 | 0.00 | 0.00 | 0.00 | 58 | 1016.9 |
| 20260504004009 | 59 | 270 | 0.0 | 0.0 | 0.00 | 0.00 | 0.00 | 58 | 1016.9 |
| 20260504003510 | 59 | 270 | 0.0 | 0.0 | 0.00 | 0.00 | 0.00 | 57 | 1016.9 |
| 20260504003038 | 60 | 270 | 0.0 | 0.0 | 0.00 | 0.00 | 0.00 | 55 | 1016.8 |
| 20260504002508 | 60 | 270 | 0.0 | 0.9 | 0.00 | 0.00 | 0.00 | 57 | 1016.8 |
| 20260504002007 | 61 | 270 | 0.0 | 1.7 | 0.00 | 0.00 | 0.00 | 55 | 1016.8 |
| 20260504001511 | 62 | 270 | 0.0 | 1.7 | 0.00 | 0.00 | 0.00 | 55 | 1016.8 |
| 20260504001004 | 62 | 270 | 0.0 | 1.7 | 0.00 | 0.00 | 0.00 | 50 | 1016.8 |
| 20260504000507 | 63 | 270 | 0.0 | 0.0 | 0.00 | 0.00 | 0.00 | 49 | 1016.8 |
| 20260504000046 | 63 | 270 | 0.0 | 0.9 | 0.00 | 0.00 | 0.00 | 53 | 1016.8 |
| 20260503235509 | 64 | 270 | 0.0 | 1.7 | 0.00 | 0.00 | 0.00 | 52 | 1016.8 |
| 20260503235008 | 64 | 278 | 0.0 | 1.7 | 0.00 | 0.00 | 0.00 | 50 | 1016.8 |
| 20260503234522 | 64 | 221 | 0.9 | 2.6 | 0.00 | 0.00 | 0.00 | 43 | 1016.9 |
| 20260503234007 | 64 | 211 | 0.9 | 2.6 | 0.00 | 0.00 | 0.00 | 43 | 1016.9 |
| 20260503233510 | 64 | 247 | 0.9 | 2.6 | 0.00 | 0.00 | 0.00 | 43 | 1016.8 |
| 20260503233023 | 65 | 206 | 1.7 | 2.6 | 0.00 | 0.00 | 0.00 | 43 | 1016.8 |
| 20260503232511 | 65 | 160 | 0.9 | 1.7 | 0.00 | 0.00 | 0.00 | 42 | 1016.8 |
| 20260503232008 | 65 | 194 | 0.9 | 6.1 | 0.00 | 0.00 | 0.00 | 42 | 1016.9 |
| 20260503231525 | 65 | 231 | 1.7 | 6.1 | 0.00 | 0.00 | 0.00 | 42 | 1016.9 |
| 20260503231010 | 65 | 200 | 0.9 | 5.2 | 0.00 | 0.00 | 0.00 | 41 | 1017.0 |
| 20260503230504 | 65 | 205 | 1.7 | 5.2 | 0.00 | 0.00 | 0.00 | 41 | 1017.0 |
| 20260503230015 | 65 | 175 | 0.9 | 3.5 | 0.00 | 0.00 | 0.00 | 42 | 1017.1 |
| 20260503225508 | 65 | 219 | 0.9 | 3.5 | 0.00 | 0.00 | 0.00 | 42 | 1017.1 |
| 20260503225007 | 65 | 197 | 0.9 | 3.5 | 0.00 | 0.00 | 0.00 | 41 | 1017.1 |
| 20260503224519 | 65 | 226 | 1.7 | 4.3 | 0.00 | 0.00 | 0.00 | 40 | 1017.1 |
| 20260503224009 | 65 | 230 | 1.7 | 4.3 | 0.00 | 0.00 | 0.00 | 40 | 1017.2 |
| 20260503223507 | 66 | 242 | 2.6 | 4.3 | 0.00 | 0.00 | 0.00 | 40 | 1017.2 |
| 20260503223028 | 65 | 197 | 0.9 | 2.6 | 0.00 | 0.00 | 0.00 | 40 | 1017.3 |
| 20260503222507 | 65 | 240 | 0.0 | 5.2 | 0.00 | 0.00 | 0.00 | 39 | 1017.4 |
| 20260503222010 | 65 | 200 | 2.6 | 5.2 | 0.00 | 0.00 | 0.00 | 39 | 1017.5 |
| 20260503221524 | 66 | 212 | 3.5 | 5.2 | 0.00 | 0.00 | 0.00 | 40 | 1017.4 |
| 20260503221014 | 66 | 209 | 0.9 | 3.5 | 0.00 | 0.00 | 0.00 | 40 | 1017.4 |
| 20260503220509 | 66 | 205 | 0.0 | 5.2 | 0.00 | 0.00 | 0.00 | 39 | 1017.4 |
| 20260503220025 | 66 | 202 | 3.5 | 5.2 | 0.00 | 0.00 | 0.00 | 40 | 1017.4 |
| 20260503215504 | 66 | 173 | 1.7 | 5.2 | 0.00 | 0.00 | 0.00 | 39 | 1017.4 |
| 20260503215008 | 66 | 160 | 0.9 | 5.2 | 0.00 | 0.00 | 0.00 | 39 | 1017.5 |
| 20260503214523 | 66 | 237 | 3.5 | 5.2 | 0.00 | 0.00 | 0.00 | 39 | 1017.5 |
| 20260503214010 | 66 | 240 | 0.0 | 3.5 | 0.00 | 0.00 | 0.00 | 40 | 1017.6 |
| 20260503213509 | 66 | 254 | 1.7 | 3.5 | 0.00 | 0.00 | 0.00 | 39 | 1017.7 |
| 20260503213021 | 65 | 217 | 0.9 | 7.0 | 0.00 | 0.00 | 0.00 | 39 | 1017.8 |
| 20260503212509 | 66 | 180 | 4.3 | 7.0 | 0.00 | 0.00 | 0.00 | 39 | 1017.8 |
| 20260503212009 | 65 | 238 | 1.7 | 6.1 | 0.00 | 0.00 | 0.00 | 40 | 1017.9 |
| 20260503211523 | 65 | 1 | 0.0 | 6.1 | 0.00 | 0.00 | 0.00 | 41 | 1018.1 |
| 20260503211006 | 66 | 239 | 0.9 | 7.8 | 0.00 | 0.00 | 0.00 | 42 | 1018.0 |
| 20260503210514 | 65 | 217 | 4.3 | 7.8 | 0.00 | 0.00 | 0.00 | 40 | 1018.1 |
| 20260503210027 | 66 | 216 | 2.6 | 6.1 | 0.00 | 0.00 | 0.00 | 40 | 1018.1 |
| 20260503205508 | 66 | 201 | 1.7 | 6.1 | 0.00 | 0.00 | 0.00 | 40 | 1018.2 |
| 20260503205008 | 66 | 234 | 0.9 | 5.2 | 0.00 | 0.00 | 0.00 | 42 | 1018.3 |
| 20260503204515 | 66 | 39 | 0.0 | 5.2 | 0.00 | 0.00 | 0.00 | 41 | 1018.4 |
| 20260503204009 | 65 | 274 | 0.9 | 6.1 | 0.00 | 0.00 | 0.00 | 40 | 1018.5 |
| 20260503203509 | 66 | 236 | 4.3 | 6.1 | 0.00 | 0.00 | 0.00 | 40 | 1018.5 |
| 20260503203029 | 66 | 188 | 1.7 | 3.5 | 0.00 | 0.00 | 0.00 | 41 | 1018.6 |
| 20260503202508 | 66 | 1 | 0.9 | 4.3 | 0.00 | 0.00 | 0.00 | 40 | 1018.7 |
| 20260503202003 | 66 | 146 | 0.9 | 6.1 | 0.00 | 0.00 | 0.00 | 41 | 1018.8 |
| 20260503201503 | 66 | 217 | 0.0 | 6.1 | 0.00 | 0.00 | 0.00 | 41 | 1018.8 |
| 20260503201002 | 66 | 235 | 1.7 | 6.1 | 0.00 | 0.00 | 0.00 | 40 | 1018.8 |
| 20260503200503 | 65 | 191 | 0.9 | 3.5 | 0.00 | 0.00 | 0.00 | 41 | 1018.9 |
| 20260503200012 | 65 | 7 | 0.0 | 3.5 | 0.00 | 0.00 | 0.00 | 40 | 1018.9 |
| 20260503195504 | 65 | 198 | 1.7 | 2.6 | 0.00 | 0.00 | 0.00 | 45 | 1019.0 |
| 20260503195005 | 65 | 167 | 0.9 | 4.3 | 0.00 | 0.00 | 0.00 | 40 | 1019.1 |
| 20260503194514 | 64 | 195 | 0.9 | 4.3 | 0.00 | 0.00 | 0.00 | 44 | 1019.2 |
| 20260503194003 | 64 | 243 | 0.9 | 7.8 | 0.00 | 0.00 | 0.00 | 41 | 1019.2 |
| 20260503193506 | 64 | 235 | 3.5 | 7.8 | 0.00 | 0.00 | 0.00 | 39 | 1019.4 |
| 20260503193019 | 64 | 129 | 2.6 | 6.1 | 0.00 | 0.00 | 0.00 | 40 | 1019.4 |
| 20260503192507 | 63 | 175 | 0.9 | 4.3 | 0.00 | 0.00 | 0.00 | 42 | 1019.5 |
| 20260503192006 | 63 | 338 | 0.9 | 5.2 | 0.00 | 0.00 | 0.00 | 39 | 1019.6 |
| 20260503191504 | 63 | 240 | 2.6 | 5.2 | 0.00 | 0.00 | 0.00 | 41 | 1019.7 |
| 20260503191003 | 63 | 248 | 1.7 | 5.2 | 0.00 | 0.00 | 0.00 | 42 | 1019.7 |
| 20260503190502 | 63 | 203 | 3.5 | 5.2 | 0.00 | 0.00 | 0.00 | 41 | 1019.7 |
| 20260503190008 | 63 | 192 | 3.5 | 5.2 | 0.00 | 0.00 | 0.00 | 43 | 1019.7 |
| 20260503185502 | 63 | 16 | 0.9 | 4.3 | 0.00 | 0.00 | 0.00 | 41 | 1019.8 |
| 20260503185003 | 63 | 241 | 2.6 | 4.3 | 0.00 | 0.00 | 0.00 | 40 | 1019.9 |
| 20260503184512 | 63 | 210 | 1.7 | 4.3 | 0.00 | 0.00 | 0.00 | 44 | 1019.9 |
| 20260503184005 | 63 | 101 | 0.9 | 2.6 | 0.00 | 0.00 | 0.00 | 39 | 1020.1 |
| 20260503183507 | 63 | 47 | 0.9 | 2.6 | 0.00 | 0.00 | 0.00 | 39 | 1020.2 |
| 20260503183018 | 63 | 55 | 0.0 | 2.6 | 0.00 | 0.00 | 0.00 | 41 | 1020.2 |
| 20260503182508 | 63 | 302 | 0.9 | 2.6 | 0.00 | 0.00 | 0.00 | 44 | 1020.2 |
| 20260503182009 | 62 | 1 | 0.9 | 1.7 | 0.00 | 0.00 | 0.00 | 40 | 1020.3 |
| 20260503181527 | 62 | 39 | 0.9 | 3.5 | 0.00 | 0.00 | 0.00 | 40 | 1020.4 |
| 20260503181010 | 61 | 154 | 1.7 | 5.2 | 0.00 | 0.00 | 0.00 | 44 | 1020.4 |
| 20260503180505 | 62 | 193 | 1.7 | 6.1 | 0.00 | 0.00 | 0.00 | 42 | 1020.5 |
| 20260503180009 | 62 | 243 | 2.6 | 6.1 | 0.00 | 0.00 | 0.00 | 43 | 1020.5 |
| 20260503175504 | 62 | 37 | 0.9 | 4.3 | 0.00 | 0.00 | 0.00 | 46 | 1020.5 |
| 20260503175003 | 62 | 187 | 0.0 | 2.6 | 0.00 | 0.00 | 0.00 | 44 | 1020.6 |
| 20260503174514 | 61 | 37 | 0.0 | 4.3 | 0.00 | 0.00 | 0.00 | 44 | 1020.6 |
| 20260503174004 | 60 | 150 | 1.7 | 4.3 | 0.00 | 0.00 | 0.00 | 46 | 1020.7 |
| 20260503173503 | 61 | 179 | 0.9 | 3.5 | 0.00 | 0.00 | 0.00 | 44 | 1020.7 |
| 20260503173025 | 61 | 204 | 0.9 | 3.5 | 0.00 | 0.00 | 0.00 | 43 | 1020.8 |
| 20260503172509 | 61 | 266 | 0.9 | 3.5 | 0.00 | 0.00 | 0.00 | 44 | 1020.8 |
| 20260503172010 | 61 | 84 | 0.9 | 1.7 | 0.00 | 0.00 | 0.00 | 43 | 1020.9 |
| 20260503171525 | 60 | 153 | 0.9 | 4.3 | 0.00 | 0.00 | 0.00 | 44 | 1021.0 |
| 20260503171006 | 60 | 245 | 2.6 | 4.3 | 0.00 | 0.00 | 0.00 | 45 | 1021.0 |
| 20260503170509 | 60 | 195 | 1.7 | 4.3 | 0.00 | 0.00 | 0.00 | 46 | 1021.0 |
| 20260503151007 | 57 | 283 | 0.0 | 2.6 | 0.00 | 0.00 | 0.00 | 49 | 1021.8 |
| 20260503150508 | 58 | 5 | 0.9 | 2.6 | 0.00 | 0.00 | 0.00 | 53 | 1021.9 |
| 20260503131005 | 50 | 1 | 0.9 | 1.7 | 0.00 | 0.00 | 0.00 | 74 | 1021.7 |
| 20260503130505 | 50 | 335 | 0.0 | 1.7 | 0.00 | 0.00 | 0.00 | 76 | 1021.7 |
| 20260503110513 | 41 | 13 | 0.0 | 0.0 | 0.00 | 0.00 | 0.00 | 91 | 1020.9 |
| 20260503090503 | 42 | 13 | 0.0 | 0.0 | 0.00 | 0.00 | 0.00 | 88 | 1019.5 |
| 20260503081504 | 43 | 1 | 0.0 | 0.0 | 0.00 | 0.00 | 0.00 | 87 | 1019.3 |
| 20260503081003 | 43 | 1 | 0.0 | 0.0 | 0.00 | 0.00 | 0.00 | 87 | 1019.3 |
| 20260503080503 | 43 | 1 | 0.0 | 0.0 | 0.00 | 0.00 | 0.00 | 87 | 1019.3 |
| 20260503072510 | 44 | 1 | 0.0 | 0.0 | 0.00 | 0.00 | 0.00 | 85 | 1019.2 |
| 20260503072008 | 44 | 1 | 0.0 | 0.0 | 0.00 | 0.00 | 0.00 | 85 | 1019.1 |
| 20260503071518 | 44 | 1 | 0.0 | 0.0 | 0.00 | 0.00 | 0.00 | 85 | 1019.0 |
| 20260503071008 | 44 | 1 | 0.0 | 0.0 | 0.00 | 0.00 | 0.00 | 85 | 1018.9 |
| 20260503070507 | 44 | 1 | 0.0 | 0.0 | 0.00 | 0.00 | 0.00 | 83 | 1018.8 |
| 20260503055003 | 47 | 1 | 0.0 | 0.0 | 0.00 | 0.00 | 0.00 | 76 | 1018.8 |
| 20260503054510 | 47 | 1 | 0.0 | 0.0 | 0.00 | 0.00 | 0.00 | 76 | 1018.8 |
| 20260503054003 | 47 | 1 | 0.0 | 0.0 | 0.00 | 0.00 | 0.00 | 76 | 1018.8 |
| 20260503053504 | 48 | 1 | 0.0 | 1.7 | 0.00 | 0.00 | 0.00 | 75 | 1018.8 |
| 20260503053011 | 48 | 1 | 0.0 | 1.7 | 0.00 | 0.00 | 0.00 | 75 | 1018.8 |
| 20260503052503 | 48 | 1 | 0.0 | 0.9 | 0.00 | 0.00 | 0.00 | 74 | 1018.8 |
| 20260503052005 | 48 | 1 | 0.0 | 1.7 | 0.00 | 0.00 | 0.00 | 74 | 1018.8 |
| 20260503051516 | 48 | 1 | 0.0 | 1.7 | 0.00 | 0.00 | 0.00 | 74 | 1018.7 |
| 20260503051006 | 49 | 1 | 0.0 | 0.0 | 0.00 | 0.00 | 0.00 | 74 | 1018.7 |
| 20260503050504 | 49 | 1 | 0.0 | 1.7 | 0.00 | 0.00 | 0.00 | 73 | 1018.7 |
| 20260503050017 | 49 | 1 | 0.0 | 1.7 | 0.00 | 0.00 | 0.00 | 72 | 1018.6 |
| 20260503045506 | 49 | 1 | 0.0 | 1.7 | 0.00 | 0.00 | 0.00 | 72 | 1018.6 |
| 20260503045007 | 49 | 1 | 0.0 | 1.7 | 0.00 | 0.00 | 0.00 | 72 | 1018.6 |
| 20260503044527 | 49 | 1 | 0.0 | 1.7 | 0.00 | 0.00 | 0.00 | 72 | 1018.5 |
| 20260503044011 | 49 | 1 | 0.0 | 0.0 | 0.00 | 0.00 | 0.00 | 72 | 1018.5 |
| 20260503043503 | 49 | 1 | 0.0 | 0.0 | 0.00 | 0.00 | 0.00 | 71 | 1018.4 |
| 20260503043008 | 50 | 1 | 0.0 | 1.7 | 0.00 | 0.00 | 0.00 | 70 | 1018.4 |
| 20260503042504 | 50 | 1 | 0.0 | 1.7 | 0.00 | 0.00 | 0.00 | 69 | 1018.3 |